Regional Weather Roundup
Issued by NWS Sioux Falls, SD

Home | Current Version | Previous Version | Graphics & Text | Print | Product List | Glossary On
Versions: 1 2 3 4 5 6 7 8 9 10 11 12 13 14 15 16 17 18 19 20 21 22 23 24 25 26 27 28 29 30 31 32 33 34 35 36 37 38 39 40 41 42 43 44 45 46 47 48 49 50
000
ASUS43 KFSD 041610
RWRFSD

WEATHER ROUNDUP FOR SE SOUTH DAKOTA/SW MINNESOTA/NW IOWA
NATIONAL WEATHER SERVICE SIOUX FALLS SD
1000 AM CST SUN DEC 04 2016

NOTE: "FAIR" INDICATES FEW OR NO CLOUDS BELOW 12,000 FEET WITH NO
SIGNIFICANT WEATHER AND OR OBSTRUCTIONS TO VISIBILITY.


SDZ038>040-050-052>070-041700-
SOUTHEAST SOUTH DAKOTA

CITY           SKY/WX    TMP DP  RH WIND       PRES   REMARKS
BROOKINGS      SUNNY     34  28  79 W13       29.83S WCI  25
CHAMBERLAIN    SUNNY     36  29  76 W9        29.89R
HURON          MOSUNNY   33  29  85 W8        29.85F WCI  26
MADISON        FAIR      32  32 100 W13       29.84S WCI  22
MITCHELL       SUNNY     34  29  82 W9        29.89S WCI  27
SIOUX FALLS    MOSUNNY   36  30  79 W7        29.87S
WINNER         FAIR      41  25  53 W13       29.90R
YANKTON        SUNNY     37  28  70 W7        29.91R
$$

MNZ071-072-080-081-089-090-097-098-041700-
SOUTHWEST MINNESOTA

CITY           SKY/WX    TMP DP  RH WIND       PRES   REMARKS
FAIRMONT       CLOUDY    35  32  88 SW9       29.89F WCI  28
JACKSON        CLOUDY    32  30  93 SW15      29.87F WCI  22
LUVERNE        MOSUNNY   34  32  93 SW12      29.88R WCI  25
MARSHALL       PTSUNNY   36  30  79 SW17      29.84R
MONTEVIDEO     CLOUDY    36  36 100 W9        29.83S
PIPESTONE      PTSUNNY   32  30  93 SW12      29.84S WCI  23
REDWOOD FALLS  PTSUNNY   36  31  82 S9        29.84F
TRACY          MOSUNNY   36  32  87 SW16      29.84R
WINDOM         PTSUNNY   36  30  80 SW17      29.85F
WORTHINGTON    CLOUDY    33  31  92 SW16      29.86S WCI  23
$$

IAZ001>003-012>014-020>022-031-032-NEZ013-014-SDZ071-041700-
NORTHWEST IOWA

CITY           SKY/WX    TMP DP  RH WIND       PRES   REMARKS
CHEROKEE       CLOUDY    34  33  99 SW8       29.92S FOG     WCI  27
DENISON        CLOUDY    34  32  93 SW9       29.93S WCI  26
ESTHERVILLE    PTSUNNY   33  32  96 SW12      29.88S WCI  24
LE MARS        SUNNY     34  32  93 SW10      29.92F WCI  26
ORANGE CITY    MOSUNNY   34  34 100 SW12      29.90S WCI  25
SHELDON        CLOUDY    34  34 100 SW12      29.87F WCI  25
SIOUX CITY     SUNNY     36  31  82 SW5       29.94S
SPENCER        CLOUDY    34  32  92 SW12      29.90F WCI  25
STORM LAKE     CLOUDY    32  30  93 SW17      29.92R WCI  21
$$

ABBREVIATIONS USED IN REMARKS
   TC - TEMPERATURE IN CELSIUS
  WCI - WIND CHILL INDEX
   HX - HEAT INDEX
  VSB - VISIBILITY





USA.gov is the U.S. government's official web portal to all federal, state and local government web resources and services.